Regional Weather Roundup
Issued by NWS State College, PA

Home | Current Version | Previous Version | Graphics & Text | Print | Product List | Glossary On
Versions: 1 2 3 4 5 6 7 8 9 10 11 12 13 14 15 16 17 18 19 20 21 22 23 24 25 26 27 28 29 30 31 32 33 34 35 36 37 38 39 40 41 42 43 44 45 46 47 48 49 50
000
ASUS41 KCTP 202203
RWRCTP

REGIONAL WEATHER ROUNDUP
NATIONAL WEATHER SERVICE STATE COLLEGE PA
600 PM EDT WED AUG 20 2014

Note: "fair" indicates few or no clouds below 12,000 feet with no
significant weather and/or obstructions to visibility.

* = STATION THAT DOES NOT REPORT PRECIPITATION /E.G. RAIN...SNOW...ETC/
    THUNDER OR FOG.

PAZ002>004-007>009-013>016-020>023-029>032-202300-
WESTERN PENNSYLVANIA

CITY           SKY/WX    TMP DP  RH WIND       PRES   REMARKS
ERIE           CLOUDY    72  66  81 S5        29.93R
MEADVILLE      CLOUDY    68  63  84 NW3       29.96S
FRANKLIN*      CLOUDY    75  66  73 SW3       29.97S
NEW CASTLE     NOT AVBL
BEAVER COUNTY  CLOUDY    79  68  69 SW5       29.96
BUTLER*        PTSUNNY   77  66  69 SW7       29.98S
PITTSBURGH INT PTSUNNY   79  67  66 SW3       29.96R
PITTSBURGH     MOSUNNY   80  64  58 SW6       29.96R
INDIANA*       MOSUNNY   79  66  65 SW8       30.00F
LATROBE        MOSUNNY   81  68  65 W12       29.97F
WASHINGTON CO* PTSUNNY   79  68  69 CALM      29.97R
$$

PAZ004>006-010>012-017>019-024>028-033>037-041-042-045-046-049>053-202300-
CENTRAL PENNSYLVANIA

CITY           SKY/WX    TMP DP  RH WIND       PRES   REMARKS
BRADFORD       PTSUNNY   75  61  61 W8        29.99S
DUBOIS         MOSUNNY   75  65  70 SW5       29.98S
CLEARFIELD     CLOUDY    76  66  71 SW6       29.98R
JOHNSTOWN      MOSUNNY   76  63  64 W9        30.02R
ALTOONA        CLOUDY    77  71  82 E5        29.99R
STATE COLLEGE  MOSUNNY   75  68  78 SW7       29.98S
WILLIAMSPORT   CLOUDY    76  67  73 S14G22    29.95S
SELINSGROVE    CLOUDY    74  69  85 S3        29.98R HAZE
FT INDIANTOWN  LGT RAIN  72  72 100 N2        29.99R
CAPITAL CITY   CLOUDY    76  68  76 S3        29.98R
HARRISBURG     CLOUDY    77  68  73 S3        29.97R
YORK           CLOUDY    75  67  76 VRB3      29.98R
$$

PAZ038>040-043-044-047-048-054-055-060>062-067>071-202300-
EASTERN PENNSYLVANIA

CITY           SKY/WX    TMP DP  RH WIND       PRES   REMARKS
SCRANTON       CLOUDY    78  64  61 S3        29.97F
MOUNT POCONO   PTSUNNY   74  63  68 S6        30.04S
ALLENTOWN      CLOUDY    81  64  56 SW8       29.97S
QUAKERTOWN*    MOCLDY    81  64  57 MISG      29.99S
READING        CLOUDY    81  65  58 S7        29.97R
LANCASTER      LGT RAIN  76  66  71 SE5       29.98R
COATESVILLE    MOCLDY    75  66  73 CALM      30.01R
POTTSTOWN      PTSUNNY   81  64  56 SW6       29.99S
BLUE BELL      MOSUNNY   82  64  54 S5        29.97S
DOYLESTOWN     PTSUNNY   79  65  62 CALM      29.97S
WILLOW GROVE   NOT AVBL
NORTH PHILA    CLOUDY    83  62  49 SE8       29.99R
PHILADELPHIA   CLOUDY    82  67  60 S10       29.97S
$$



USA.gov is the U.S. government's official web portal to all federal, state and local government web resources and services.